Погода в Хамби-Ирзях

Россия / Чеченская Республика     43°14′02″N   45°27′10″E
темп.,
°C
ветер,
м/с
пор.,
м/с
влажн.,
%
обл.,
%
осадки,
мм/ч
давл.,
гПа
погр.,
м
19 мая, ср
ср1900:00+15ююз11830 0.0 101113
03:00+14ююз11810 0.0 101011
06:00+15вюв12670 0.0 100988
09:00+23в355278 0.0 1007807
12:00+27ссв22390 0.0 10071274
15:00+28сз55427 0.0 10101879
18:00+17з51190100 2.1 1014519
21:00+16з2694100 6.5 1018403
20 мая, чт
чт2000:00+16ююз1190100 0.1 101753
03:00+15юв119097 0.1 101727
06:00+16юв238786 0.0 1018131
09:00+21в68400 0.0 10161253
12:00+24в67370 0.0 10151307
15:00+25в67380 0.0 10141298
18:00+21в48470 0.0 1015350
21:00+15в12610 0.0 101549
21 мая, пт
пт2100:00+13зсз11680 0.0 101414
03:00+13з00710 0.0 101411
06:00+15в11670 0.0 101365
09:00+23св22520 0.0 1012437
12:00+29всв23370 0.0 1010808
15:00+32всв44332 0.0 10081066
18:00+26св46545 0.0 1009157
21:00+19с11690 0.0 101013
22 мая, сб
сб2200:00+17ссз00760 0.0 100911
03:00+16юз11773 0.0 100911
06:00+19в11680 0.0 100846
09:00+27всв22450 0.0 1007374
12:00+33св34325 0.0 1005808
15:00+35всв34285 0.0 10031111
18:00+29св344826 0.0 1003107
21:00+22зсз236491 0.0 100436
23 мая, вс
вс2300:00+21з236717 0.0 100444
03:00+20з267440 0.0 1006115
06:00+22з27735 0.0 1008355
09:00+27зсз33615 0.0 1008910
12:00+30сз325295 0.0 10081582
15:00+28зсз3463100 0.3 1008497
18:00+26зсз3573100 0.6 1008160
21:00+23з2386100 1.8 101062